Meacham, OR

10:39 PM PDT on May 27, 2018 (GMT -0700)
Meacham

Weather History for KMEH - July, 2014

Change the Weather History Date:

Friday, July 4, 2014

  Actual Average Record
Temperature  
Mean Temperature 64 °F -  
Max Temperature 82 °F 73 °F 91 °F (1997)
Min Temperature 46 °F 37 °F 30 °F (2003)
Degree Days  
Heating Degree Days 2    
Growing Degree Days 14 (Base 50)    
Moisture  
Dew Point 43 °F    
Average Humidity 53    
Maximum Humidity 86    
Minimum Humidity 24    
Precipitation  
Precipitation 0.00 in - - ()
Sea Level Pressure  
Sea Level Pressure 29.98 in    
Wind  
Wind Speed 1 mph (NNW)    
Max Wind Speed 5 mph    
Max Gust Speed -    
Visibility 10 miles    
Events      
Averages and records for this station are not official NWS values.
T = Trace of Precipitation, MM = Missing Value Source: NWS Daily Summary

Daily Weather History Graph

Daily Weather History Graph

Search for Another Location

Airport or City:

Astronomy

Jul. 04, 2014 Rise Set
Actual Time 5:10 AM PDT 8:45 PM PDT
Civil Twilight 4:33 AM PDT 9:22 PM PDT
Nautical Twilight 3:43 AM PDT 10:12 PM PDT
Astronomical Twilight 2:37 AM PDT 11:18 PM PDT
Moon 12:33 PM PDT (7/4) No Moon Set
Length of Visible Light 16h 49m
Length of Day
15h 34m
Waxing Crescent, 43% of the Moon is Illuminated
Jul 4
Waxing Crescent
Jul 5
First Quarter
Jul 12
Full
Jul 18
Last Quarter
Jul 26
New

Hourly Weather History & Observations

Time (PDT) Temp. Dew Point Humidity Pressure Visibility Wind Dir Wind Speed Gust Speed Precip Events Conditions
12:56 AM 51.1 °F 44.1 °F 77% 30.00 in 10.0 mi Calm Calm - N/A   Clear
1:56 AM 48.9 °F 44.1 °F 83% 30.00 in 10.0 mi Calm Calm - N/A   Clear
2:56 AM 48.9 °F 43.0 °F 80% 30.00 in 10.0 mi Calm Calm - N/A   Clear
3:56 AM 48.9 °F 43.0 °F 80% 29.99 in 10.0 mi Calm Calm - N/A   Clear
4:56 AM 46.9 °F 43.0 °F 86% 30.00 in 10.0 mi Calm Calm - N/A   Clear
5:56 AM 46.9 °F 43.0 °F 86% 30.00 in 10.0 mi Calm Calm - N/A   Clear
6:56 AM 51.1 °F 44.1 °F 77% 29.99 in 10.0 mi Calm Calm - N/A   Clear
7:56 AM 60.1 °F 44.1 °F 55% 29.98 in 10.0 mi Calm Calm - N/A   Clear
8:56 AM 64.0 °F 42.1 °F 45% 29.98 in 10.0 mi Calm Calm - N/A   Clear
9:56 AM 68.0 °F 39.9 °F 36% 29.99 in 10.0 mi Variable 3.5 mph - N/A   Clear
10:56 AM 70.0 °F 42.1 °F 36% 29.99 in 10.0 mi WNW 3.5 mph - N/A   Clear
11:56 AM 73.9 °F 43.0 °F 33% 29.98 in 10.0 mi NNE 4.6 mph - N/A   Clear
12:56 PM 73.9 °F 45.0 °F 35% 29.98 in 10.0 mi Calm Calm - N/A   Clear
1:56 PM 77.0 °F 43.0 °F 30% 29.96 in 10.0 mi Calm Calm - N/A   Clear
2:56 PM 81.0 °F 43.0 °F 26% 29.94 in 10.0 mi Calm Calm - N/A   Clear
3:56 PM 79.0 °F 43.0 °F 28% 29.94 in 10.0 mi Variable 4.6 mph - N/A   Clear
4:56 PM 77.0 °F 37.9 °F 24% 29.95 in 10.0 mi Variable 3.5 mph - N/A   Clear
5:56 PM 75.0 °F 37.0 °F 25% 29.96 in 10.0 mi Variable 3.5 mph - N/A   Clear
6:56 PM 73.0 °F 39.0 °F 29% 29.96 in 10.0 mi Calm Calm - N/A   Clear
7:56 PM 66.9 °F 43.0 °F 42% 29.96 in 10.0 mi Calm Calm - N/A   Clear
8:56 PM 63.0 °F 46.0 °F 54% 29.98 in 10.0 mi Calm Calm - N/A   Clear
9:56 PM 60.1 °F 48.0 °F 64% 30.00 in 10.0 mi Calm Calm - N/A   Clear
10:56 PM 57.9 °F 48.0 °F 70% 30.01 in 10.0 mi Calm Calm - N/A   Clear
11:56 PM 55.9 °F 48.0 °F 75% 30.02 in 10.0 mi Calm Calm - N/A   Clear